7 * 24
多渠道服务支持
YAOGAN-43 O1C 是中国研制的一颗遥感卫星,主要用于科学实验和国土资源探测。该卫星属于遥感四十三号系列,具备高分辨率成像能力,能够获取地球表面的详细图像数据,服务于环境监测、农业评估、灾害预警等多个领域。卫星由长征系列运载火箭发射入轨,体现了中国在遥感技术和航天工程方面的持续进步。
中国
(CN)
| 数据来源 | 国际轨道数据 |
| 星历时间: | 2025-12-11T08:56:09+0800 4天前 查看轨道信息 |
| 半长轴: | 6874.106km |
| 偏心率: | 0.0006369 |
| 轨道倾角: | 35.000° |
| 近地点辐角 | 303.639° |
| 升交点赤经 | 266.032° |
| 平近点角 | 56.372° |
| 近地点: | 491.592km |
| 远地点: | 500.35km |
| 周期: | 94.533分钟 |
| 每日圈数: | 15.232757 |